Regional Weather Roundup
Issued by NWS Charleston, WV

Home | Current Version | Previous Version | Text Only | Print | Product List | Glossary Off
Versions: 1 2 3 4 5 6 7 8 9 10 11 12 13 14 15 16 17 18 19 20 21 22 23 24 25 26 27 28 29 30 31 32 33 34 35 36 37 38 39 40 41 42 43 44 45 46 47 48 49 50

000
ASUS41 KRLX 050510
RWRRLX
West Virginia Regional Weather Roundup
National Weather Service Charleston WV
100 AM EDT SUN JUL 05 2015

Note: "fair" indicates few or no clouds below 12,000 feet with no
significant weather and/or obstructions to visibility.

WVZ003-050600-
Northern Panhandle of West Virginia

CITY           SKY/WX    TMP DP  RH WIND       PRES   REMARKS
WHEELING       PTCLDY    64  57  78 NE3       30.09R
$$

WVZ009-050600-
Northwest West Virginia

CITY           SKY/WX    TMP DP  RH WIND       PRES   REMARKS
PARKERSBURG    PTCLDY    62  60  93 CALM      30.10R FOG
$$

WVZ006-050600-
Western West Virginia

CITY           SKY/WX    TMP DP  RH WIND       PRES   REMARKS
HUNTINGTON     PTCLDY    67  66  97 CALM      30.06S FOG
$$

WVZ015-050600-
West Central West Virginia

CITY           SKY/WX    TMP DP  RH WIND       PRES   REMARKS
CHARLESTON     FOG       67  65  93 CALM      30.07S VSB 1/2
$$

WVZ022-031-050600-
North Central West Virginia

CITY           SKY/WX    TMP DP  RH WIND       PRES   REMARKS
CLARKSBURG     FOG       62  61  96 CALM      30.08S VSB 1
MORGANTOWN     PTCLDY    65  59  81 CALM      30.09S HAZE
$$

WVZ025-035-042-045-050600-
Southern West Virginia

CITY           SKY/WX    TMP DP  RH WIND       PRES   REMARKS
BECKLEY        MOCLDY    63  61  93 CALM      30.14S FOG
LOGAN          FOG       68  66  94 CALM      30.06S VSB 1/4
BLUEFIELD      CLOUDY    66  62  87 CALM      30.16S
LEWISBURG      MOCLDY    63  61  92 CALM      30.13F FOG
$$

WVZ047-050600-
Northern Mountains of West Virginia

CITY           SKY/WX    TMP DP  RH WIND       PRES   REMARKS
ELKINS         PTCLDY    61  58  90 CALM      30.13S FOG
$$

WVZ052-050600-
Eastern Panhandle of West Virginia

CITY           SKY/WX    TMP DP  RH WIND       PRES   REMARKS
MARTINSBURG    MOCLDY    68  65  90 CALM      30.07S FOG
PETERSBURG     PTCLDY    65  62  90 CALM      30.09S FOG
$$



USA.gov is the U.S. government's official web portal to all federal, state and local government web resources and services.